Location: Johnson City
(36.3130°N, 82.3540°W)
Time: 10:43:33
(UTC-05:00)

X-37B - Pass Details

Date: 05 December 2021
Orbit: 334 x 337 km, 45.0° (Epoch: 11 January)

Event Time Altitude Azimuth Distance (km) Brightness Sun altitude
Rises 17:36:43 0° 203° (SSW) 2,086 5.1 -4.9°
Reaches altitude 10° 17:39:11 10° 180° (S) 1,254 3.5 -5.4°
Maximum altitude 17:41:00 16° 139° (SE) 984 2.5 -5.7°
Drops below altitude 10° 17:42:49 10° 99° (E) 1,259 2.7 -6.0°
Enters shadow 17:43:38 - 88° (E) 1,501 3.0 -6.2°
